Location: Newark
(34.1333°N, 7.9667°W)
Time: 09:28:42
(UTC+00:00)

COSMOS 2251 DEB - Pass Details

Date: 21 February 2024
Orbit: 726 x 941 km, 73.7° (Epoch: 12 April)

Event Time Altitude Azimuth Distance (km) Brightness Sun altitude
Rises 06:47:48 0° 207° (SSW) 3,589 ? -5.5°
Reaches altitude 10° 06:50:22 10° 211° (SSW) 2,649 ? -5.0°
Maximum altitude 06:56:25 58° 290° (WNW) 1,082 ? -3.8°
Drops below altitude 10° 07:02:23 10° 9° (N) 2,603 ? -2.6°
Sets 07:04:53 0° 13° (NNE) 3,523 ? -2.0°
